Mount Pleasant, IA

11:49 PM CDT on July 25, 2017 (GMT -0500)
Mount Pleasant Municipal

Weather History for KMPZ - November, 2012

Change the Weather History Date:

Friday, November 2, 2012

  Actual Average Record
Temperature  
Mean Temperature 38 °F -  
Max Temperature 49 °F 55 °F 77 °F (1964)
Min Temperature 28 °F 38 °F 14 °F (1951)
Degree Days  
Heating Degree Days 26    
Moisture  
Dew Point 29 °F    
Average Humidity 68    
Maximum Humidity 88    
Minimum Humidity 42    
Precipitation  
Precipitation 0.00 in - - ()
Sea Level Pressure  
Sea Level Pressure 30.06 in    
Wind  
Wind Speed 7 mph (NE)    
Max Wind Speed 12 mph    
Max Gust Speed -    
Visibility 10 miles    
Events      
Averages and records for this station are not official NWS values.
T = Trace of Precipitation, MM = Missing Value Source: NWS Daily Summary

Daily Weather History Graph

Daily Weather History Graph

Search for Another Location

Airport or City:

Trip Planner

Search our weather history database for the weather conditions in past years. The results will help you decide how hot, cold, wet, or windy it might be!

Date:

Astronomy

Nov. 02, 2012 Rise Set
Actual Time 7:38 AM CDT 6:00 PM CDT
Civil Twilight 7:09 AM CDT 6:28 PM CDT
Nautical Twilight 6:37 AM CDT 7:01 PM CDT
Astronomical Twilight 6:05 AM CDT 7:33 PM CDT
Moon 8:46 PM CDT (11/2) 11:00 AM CDT (11/2)
Length of Visible Light 11h 18m
Length of Day
10h 21m
Waning Gibbous, 87% of the Moon is Illuminated
Nov 2
Waning Gibbous
Nov 6
Last Quarter
Nov 13
New
Nov 20
First Quarter
Nov 28
Full

Hourly Weather History & Observations

Time (CDT) Temp. Windchill Dew Point Humidity Pressure Visibility Wind Dir Wind Speed Gust Speed Precip Events Conditions
12:15 AM 35.6 °F 29.9 °F 30.6 °F 82% 29.98 in 10.0 mi North 6.9 mph - N/A   Clear
12:35 AM 35.6 °F 29.2 °F 30.6 °F 82% 29.99 in 10.0 mi NNW 8.1 mph - N/A   Clear
12:55 AM 35.6 °F 29.2 °F 30.2 °F 81% 29.99 in 10.0 mi NNW 8.1 mph - N/A   Clear
1:15 AM 35.2 °F 28.8 °F 30.0 °F 81% 29.99 in 10.0 mi North 8.1 mph - N/A   Clear
1:35 AM 35.1 °F 29.3 °F 29.8 °F 81% 29.99 in 10.0 mi NNW 6.9 mph - N/A   Clear
1:55 AM 35.1 °F 28.6 °F 29.8 °F 81% 29.99 in 10.0 mi North 8.1 mph - N/A   Clear
2:15 AM 34.2 °F 26.8 °F 29.3 °F 82% 30.00 in 10.0 mi North 9.2 mph - N/A   Clear
2:35 AM 34.2 °F 27.5 °F 29.3 °F 82% 30.01 in 10.0 mi North 8.1 mph - N/A   Clear
2:55 AM 33.6 °F 26.8 °F 29.1 °F 84% 30.01 in 10.0 mi North 8.1 mph - N/A   Clear
3:15 AM 32.7 °F 26.4 °F 28.4 °F 84% 30.02 in 10.0 mi North 6.9 mph - N/A   Clear
3:35 AM 32.9 °F 25.9 °F 28.4 °F 84% 30.01 in 10.0 mi North 8.1 mph - N/A   Clear
3:55 AM 32.2 °F 25.8 °F 28.0 °F 85% 30.01 in 10.0 mi North 6.9 mph - N/A   Clear
4:15 AM 32.2 °F 25.8 °F 27.9 °F 84% 30.02 in 10.0 mi North 6.9 mph - N/A   Clear
4:35 AM 32.0 °F 25.6 °F 28.0 °F 85% 30.02 in 10.0 mi North 6.9 mph - N/A   Clear
4:55 AM 31.8 °F 26.2 °F 27.5 °F 84% 30.03 in 10.0 mi North 5.8 mph - N/A   Clear
5:15 AM 31.6 °F 26.0 °F 27.5 °F 85% 30.03 in 10.0 mi North 5.8 mph - N/A   Clear
5:35 AM 31.6 °F 26.0 °F 27.3 °F 84% 30.04 in 10.0 mi North 5.8 mph - N/A   Clear
5:55 AM 31.5 °F 26.8 °F 27.1 °F 84% 30.05 in 10.0 mi North 4.6 mph - N/A   Clear
6:15 AM 30.9 °F 26.2 °F 26.6 °F 84% 30.05 in 10.0 mi North 4.6 mph - N/A   Clear
6:35 AM 30.4 °F 24.5 °F 26.4 °F 85% 30.05 in 10.0 mi North 5.8 mph - N/A   Clear
6:55 AM 30.0 °F 25.2 °F 26.2 °F 86% 30.05 in 10.0 mi NNE 4.6 mph - N/A   Clear
7:15 AM 29.1 °F 23.0 °F 25.7 °F 87% 30.05 in 10.0 mi NNE 5.8 mph - N/A   Clear
7:35 AM 28.9 °F 22.8 °F 25.5 °F 87% 30.06 in 10.0 mi NNE 5.8 mph - N/A   Clear
7:55 AM 29.3 °F 23.2 °F 26.1 °F 88% 30.07 in 10.0 mi NNE 5.8 mph - N/A   Clear
8:15 AM 29.8 °F 26.3 °F 26.6 °F 88% 30.08 in 10.0 mi NNE 3.5 mph - N/A   Clear
8:37 AM 32.0 °F - 28.4 °F 87% 30.09 in 10.0 mi Calm Calm - N/A   Clear
8:55 AM 32.7 °F 28.3 °F 28.4 °F 84% 30.09 in 10.0 mi ENE 4.6 mph - N/A   Clear
9:15 AM 34.5 °F 29.4 °F 29.5 °F 82% 30.09 in 10.0 mi ENE 5.8 mph - N/A   Clear
9:35 AM 36.9 °F 32.2 °F 30.9 °F 79% 30.11 in 10.0 mi East 5.8 mph - N/A   Clear
9:55 AM 39.0 °F 34.0 °F 30.7 °F 72% 30.11 in 10.0 mi East 6.9 mph - N/A   Clear
10:15 AM 40.8 °F 35.6 °F 30.0 °F 65% 30.11 in 10.0 mi East 8.1 mph - N/A   Clear
10:35 AM 42.1 °F 37.1 °F 29.8 °F 62% 30.11 in 10.0 mi East 8.1 mph - N/A   Clear
10:55 AM 43.7 °F 39.1 °F 29.7 °F 58% 30.11 in 10.0 mi East 8.1 mph - N/A   Clear
11:15 AM 43.7 °F 39.7 °F 28.9 °F 56% 30.11 in 10.0 mi East 6.9 mph - N/A   Clear
11:35 AM 45.1 °F 40.8 °F 28.8 °F 53% 30.11 in 10.0 mi ESE 8.1 mph - N/A   Clear
11:55 AM 45.5 °F 41.8 °F 28.2 °F 51% 30.11 in 10.0 mi ESE 6.9 mph - N/A   Clear
12:15 PM 45.7 °F 42.0 °F 27.7 °F 49% 30.10 in 10.0 mi East 6.9 mph - N/A   Clear
12:35 PM 46.6 °F - 28.0 °F 49% 30.10 in 10.0 mi East 5.8 mph - N/A   Clear
1:15 PM 47.5 °F - 28.0 °F 47% 30.08 in 10.0 mi East 9.2 mph - N/A   Clear
1:35 PM 47.7 °F - 25.5 °F 42% 30.08 in 10.0 mi East 8.1 mph - N/A   Clear
1:55 PM 47.5 °F - 25.5 °F 42% 30.07 in 10.0 mi East 8.1 mph - N/A   Clear
2:15 PM 47.8 °F - 26.4 °F 43% 30.07 in 10.0 mi East 9.2 mph - N/A   Clear
2:35 PM 49.1 °F - 27.0 °F 42% 30.06 in 10.0 mi East 10.4 mph - N/A   Clear
2:55 PM 48.6 °F - 28.0 °F 45% 30.05 in 10.0 mi East 10.4 mph - N/A   Clear
3:15 PM 48.2 °F - 27.9 °F 45% 30.05 in 10.0 mi East 10.4 mph - N/A   Clear
3:35 PM 48.0 °F - 28.0 °F 46% 30.05 in 10.0 mi East 11.5 mph - N/A   Clear
3:55 PM 47.8 °F - 28.4 °F 47% 30.05 in 10.0 mi East 6.9 mph - N/A   Clear
4:15 PM 48.2 °F - 27.7 °F 45% 30.05 in 10.0 mi East 10.4 mph - N/A   Clear
4:35 PM 48.2 °F - 27.5 °F 45% 30.05 in 10.0 mi East 10.4 mph - N/A   Clear
4:55 PM 47.5 °F - 27.3 °F 46% 30.05 in 10.0 mi East 10.4 mph - N/A   Clear
5:15 PM 47.3 °F - 28.2 °F 48% 30.06 in 10.0 mi East 6.9 mph - N/A   Clear
5:35 PM 46.4 °F 43.5 °F 28.9 °F 51% 30.06 in 10.0 mi East 5.8 mph - N/A   Clear
5:55 PM 45.7 °F 41.0 °F 29.7 °F 54% 30.04 in 10.0 mi ENE 9.2 mph - N/A   Clear
6:15 PM 45.3 °F 43.0 °F 29.8 °F 55% 30.06 in 10.0 mi East 4.6 mph - N/A   Clear
6:35 PM 43.9 °F 40.5 °F 30.0 °F 58% 30.06 in 10.0 mi East 5.8 mph - N/A   Clear
6:55 PM 42.8 °F 38.6 °F 30.2 °F 61% 30.05 in 10.0 mi ENE 6.9 mph - N/A   Clear
7:15 PM 42.8 °F 37.5 °F 30.0 °F 61% 30.05 in 10.0 mi ENE 9.2 mph - N/A   Clear
7:35 PM 43.0 °F 39.5 °F 30.2 °F 61% 30.07 in 10.0 mi ENE 5.8 mph - N/A   Clear
7:55 PM 42.3 °F 37.9 °F 30.0 °F 62% 30.07 in 10.0 mi NE 6.9 mph - N/A   Clear
8:15 PM 41.4 °F 35.7 °F 30.0 °F 64% 30.06 in 10.0 mi ENE 9.2 mph - N/A   Clear
8:35 PM 40.8 °F 35.6 °F 29.7 °F 64% 30.06 in 10.0 mi ENE 8.1 mph - N/A   Clear
8:55 PM 38.8 °F 33.8 °F 29.3 °F 69% 30.06 in 10.0 mi East 6.9 mph - N/A   Clear
9:15 PM 37.6 °F 32.3 °F 29.1 °F 72% 30.07 in 10.0 mi ENE 6.9 mph - N/A   Clear
9:35 PM 37.0 °F 31.6 °F 29.1 °F 73% 30.07 in 10.0 mi East 6.9 mph - N/A   Clear
9:55 PM 36.9 °F 30.7 °F 29.1 °F 74% 30.08 in 10.0 mi ENE 8.1 mph - N/A   Clear
10:15 PM 36.1 °F 30.6 °F 28.8 °F 75% 30.09 in 10.0 mi NE 6.9 mph - N/A   Clear
10:35 PM 36.1 °F 30.6 °F 28.4 °F 73% 30.09 in 10.0 mi NE 6.9 mph - N/A   Clear
10:55 PM 35.6 °F 29.2 °F 28.4 °F 75% 30.10 in 10.0 mi ENE 8.1 mph - N/A   Clear
11:15 PM 36.3 °F 30.1 °F 29.1 °F 75% 30.10 in 10.0 mi NE 8.1 mph - N/A   Mostly Cloudy
11:35 PM 38.3 °F 31.4 °F 29.5 °F 71% 30.09 in 10.0 mi ENE 10.4 mph - N/A   Overcast
11:55 PM 38.3 °F 31.4 °F 29.7 °F 71% 30.09 in 10.0 mi ENE 10.4 mph - N/A   Overcast